Weather History for MMMZ - November, 2013

Change the Weather History Date:

Tuesday, November 26, 2013

  Actual Average Record
Temperature  
Mean Temperature 68 °F -  
Max Temperature 84 °F 82 °F 89 °F (1997)
Min Temperature 51 °F 58 °F 50 °F (2014)
Cooling Degree Days 2    
Growing Degree Days 18 (Base 50)    
Moisture  
Dew Point 55 °F    
Average Humidity 62    
Maximum Humidity 88    
Minimum Humidity 38    
Precipitation  
Precipitation 0.00 in - - ()
Sea Level Pressure  
Sea Level Pressure 29.90 in    
Wind  
Wind Speed 6 mph ()    
Max Wind Speed 12 mph    
Max Gust Speed -    
Visibility 12.6 miles    
Events      
Averages and records for this station are not official NWS values.
T = Trace of Precipitation, MM = Missing Value Source: Averaged Metar Reports

Daily Weather History Graph

Daily Weather History Graph

Search for Another Location

Airport or City:

Trip Planner

Search our weather history database for the weather conditions in past years. The results will help you decide how hot, cold, wet, or windy it might be!

Date:

Astronomy

Nov. 26, 2013 Rise Set
Actual Time 6:26 AM MST 5:18 PM MST
Civil Twilight 6:02 AM MST 5:42 PM MST
Nautical Twilight 5:34 AM MST 6:10 PM MST
Astronomical Twilight 5:07 AM MST 6:37 PM MST
Moon 12:15 AM MST (11/26) 12:47 PM MST (11/26)
Length of Visible Light 11h 40m
Length of Day
10h 52m
Last Quarter, 40% of the Moon is Illuminated
Nov 26
Last Quarter
Dec 2
New
Dec 9
First Quarter
Dec 17
Full
Dec 25
Last Quarter

Hourly Weather History & Observations

Time (MST) Temp. Heat Index Dew Point Humidity Pressure Visibility Wind Dir Wind Speed Gust Speed Precip Events Conditions
12:59 AM 57.2 °F - 48.2 °F 72% 29.95 in 10.0 mi North 6.9 mph - N/A   Clear
1:46 AM 57.2 °F - 48.2 °F 72% 29.94 in 10.0 mi North 8.1 mph - N/A   Clear
2:00 AM 64 °F - 54 °F 61% 29.95 in - NW 2.2 mph - -  
2:46 AM 53.6 °F - 48.2 °F 82% 29.93 in 10.0 mi NNE 6.9 mph - N/A   Clear
3:43 AM 53.6 °F - 48.2 °F 82% 29.93 in 10.0 mi Calm Calm - N/A   Clear
4:46 AM 53.6 °F - 48.2 °F 82% 29.94 in 10.0 mi NNE 6.9 mph - N/A   Clear
5:42 AM 51.8 °F - 46.4 °F 82% 29.94 in 10.0 mi NNE 6.9 mph - N/A   Clear
6:44 AM 53.6 °F - 48.2 °F 82% 29.95 in 15.0 mi North 6.9 mph - N/A   Clear
7:40 AM 57.2 °F - 53.6 °F 88% 29.96 in 15.0 mi North 9.2 mph - N/A   Clear
8:00 AM 68 °F - 59 °F 65% 29.98 in - North 4.5 mph - -  
8:44 AM 64.4 °F - 55.4 °F 73% 29.97 in 15.0 mi North 8.1 mph - N/A   Clear
9:40 AM 71.6 °F - 59.0 °F 64% 29.96 in 15.0 mi NE 6.9 mph - N/A   Clear
10:49 AM 75.2 °F - 60.8 °F 61% 29.93 in 15.0 mi SSE 8.1 mph - N/A   Clear
11:00 AM 84 °F - 62 °F 38% 29.95 in - SE 2.2 mph - -  
11:47 AM 78.8 °F - 60.8 °F 54% 29.90 in 15.0 mi SSE 6.9 mph - N/A   Clear
12:40 PM 80.6 °F 81.1 °F 59.0 °F 48% 29.87 in 15.0 mi WSW 6.9 mph - N/A   Clear
1:48 PM 82.4 °F 82.9 °F 60.8 °F 48% 29.84 in 15.0 mi SW 10.4 mph - N/A   Clear
2:00 PM 83 °F - 65 °F 44% 29.87 in - West 6.7 mph - -  
2:45 PM 80.6 °F 81.5 °F 60.8 °F 51% 29.84 in 15.0 mi WSW 10.4 mph - N/A   Clear
3:44 PM 80.6 °F 81.5 °F 60.8 °F 51% 29.82 in 15.0 mi WSW 11.5 mph - N/A   Clear
4:41 PM 77.0 °F - 59.0 °F 54% 29.83 in 15.0 mi West 11.5 mph - N/A   Clear
5:40 PM 73.4 °F - 55.4 °F 53% 29.84 in 15.0 mi West 10.4 mph - N/A   Clear
6:41 PM 68.0 °F - 51.8 °F 56% 29.85 in 12.0 mi North 9.2 mph - N/A   Clear
7:42 PM 66.2 °F - 51.8 °F 60% 29.86 in 10.0 mi NW 6.9 mph - N/A   Clear
8:00 PM 73 °F - 58 °F 50% 29.88 in - NW 4.5 mph - -  
8:44 PM 68.0 °F - 51.8 °F 56% 29.86 in 10.0 mi NNW 9.2 mph - N/A   Clear
9:42 PM 66.2 °F - 50.0 °F 56% 29.86 in 10.0 mi WNW 9.2 mph - N/A   Clear
10:49 PM 64.4 °F - 48.2 °F 56% 29.86 in 10.0 mi North 8.1 mph - N/A   Clear
11:41 PM 60.8 °F - 48.2 °F 63% 29.85 in 10.0 mi NNE 8.1 mph - N/A   Clear